GW2463 Weather Reports


time (UTC)temp
C
wind
direction
speed
KPH
gust
KPH
rain 1hr
cm
rain 24hr
cm
rain mn
cm
humidity
%
barometer
mb
20260504141027 12 257 3.2 14.5 0.00 0.00 0.00 42 1012.6
20260504140525 12 321 3.2 11.3 0.00 0.00 0.00 42 1012.4
20260504130513 11 294 1.6 11.3 0.00 0.00 0.00 44 1012.9
20260504110519 8 263 1.6 8.0 0.00 0.00 0.00 50 1012.9
20260504100536 7 257 1.6 8.0 0.00 0.00 0.00 52 1012.6
20260504081515 7 243 3.2 11.3 0.00 0.00 0.00 53 1012.9
20260504081014 7 252 1.6 8.0 0.00 0.00 0.00 53 1012.9
20260504080535 7 259 3.2 8.0 0.00 0.00 0.00 53 1012.9
20260504050544 7 246 0.0 3.2 0.00 0.00 0.00 53 1012.7
20260504050016 7 252 0.0 3.2 0.00 0.00 0.00 54 1012.6
20260504045530 7 263 0.0 3.2 0.00 0.00 0.00 53 1012.6
20260504045026 7 238 0.0 3.2 0.00 0.00 0.00 54 1012.6
20260504044523 7 245 0.0 3.2 0.00 0.00 0.00 53 1012.6
20260504044020 7 245 0.0 4.8 0.00 0.00 0.00 53 1012.5
20260504043539 7 297 0.0 4.8 0.00 0.00 0.00 53 1012.5
20260504043017 7 248 1.6 4.8 0.00 0.00 0.00 53 1012.5
20260504042515 7 239 1.6 4.8 0.00 0.00 0.00 53 1012.5
20260504042014 7 250 0.0 3.2 0.00 0.00 0.00 53 1012.5
20260504041533 7 240 0.0 3.2 0.00 0.00 0.00 53 1012.4
20260504041029 7 250 0.0 4.8 0.00 0.00 0.00 53 1012.4
20260504040528 7 255 0.0 3.2 0.00 0.00 0.00 53 1012.3
20260504040023 7 242 0.0 3.2 0.00 0.00 0.00 53 1012.3
20260504035515 7 263 1.6 3.2 0.00 0.00 0.00 53 1012.3
20260504035013 7 266 0.0 1.6 0.00 0.00 0.00 52 1012.3
20260504034530 7 267 0.0 4.8 0.00 0.00 0.00 52 1012.3
20260504034027 7 266 0.0 4.8 0.00 0.00 0.00 52 1012.2
20260504033524 7 233 0.0 1.6 0.00 0.00 0.00 52 1012.2
20260504033021 7 235 0.0 3.2 0.00 0.00 0.00 52 1012.2
20260504032518 7 290 0.0 3.2 0.00 0.00 0.00 52 1012.3
20260504032015 7 262 0.0 3.2 0.00 0.00 0.00 52 1012.3
20260504031532 7 245 0.0 3.2 0.00 0.00 0.00 52 1012.3
20260504031046 7 255 0.0 3.2 0.00 0.00 0.00 52 1012.3
20260504030524 7 262 0.0 1.6 0.00 0.00 0.00 53 1012.3
20260504030020 7 215 0.0 1.6 0.00 0.00 0.00 53 1012.3
20260504025521 7 266 0.0 0.0 0.00 0.00 0.00 52 1012.4
20260504025020 7 266 0.0 0.0 0.00 0.00 0.00 52 1012.3
20260504024520 7 266 0.0 1.6 0.00 0.00 0.00 52 1012.3
20260504024018 7 267 0.0 1.6 0.00 0.00 0.00 51 1012.4
20260504023518 7 276 0.0 1.6 0.00 0.00 0.00 51 1012.3
20260504023017 7 276 0.0 0.0 0.00 0.00 0.00 52 1012.4
20260504022533 7 276 0.0 0.0 0.00 0.00 0.00 52 1012.5
20260504022031 7 276 0.0 1.6 0.00 0.00 0.00 51 1012.4
20260504021550 7 276 0.0 3.2 0.00 0.00 0.00 50 1012.4
20260504021029 7 277 0.0 3.2 0.00 0.00 0.00 50 1012.5
20260504020528 7 259 0.0 3.2 0.00 0.00 0.00 51 1012.4
20260504020043 7 236 0.0 0.0 0.00 0.00 0.00 50 1012.4
20260504015520 7 235 0.0 0.0 0.00 0.00 0.00 49 1012.4
20260504015020 7 236 0.0 0.0 0.00 0.00 0.00 50 1012.4
20260504014519 7 267 0.0 0.0 0.00 0.00 0.00 50 1012.3
20260504014017 7 271 0.0 0.0 0.00 0.00 0.00 51 1012.3
20260504013536 7 271 0.0 0.0 0.00 0.00 0.00 52 1012.2
20260504013015 7 271 0.0 1.6 0.00 0.00 0.00 50 1012.1
20260504012514 7 271 0.0 1.6 0.00 0.00 0.00 51 1012.1
20260504012013 7 248 0.0 0.0 0.00 0.00 0.00 50 1012.1
20260504011532 8 248 0.0 0.0 0.00 0.00 0.00 51 1012.0
20260504011052 8 248 0.0 0.0 0.00 0.00 0.00 51 1012.0
20260504010530 8 248 0.0 0.0 0.00 0.00 0.00 51 1012.0
20260504010023 8 248 0.0 0.0 0.00 0.00 0.00 50 1012.0
20260504005522 8 248 0.0 0.0 0.00 0.00 0.00 48 1011.9
20260504005021 8 248 0.0 0.0 0.00 0.00 0.00 47 1011.9
20260504004520 8 248 0.0 0.0 0.00 0.00 0.00 47 1011.9
20260504004019 8 248 0.0 0.0 0.00 0.00 0.00 47 1011.8
20260504003518 8 248 0.0 0.0 0.00 0.00 0.00 46 1011.8
20260504003018 8 256 0.0 0.0 0.00 0.00 0.00 46 1011.7
20260504002517 9 256 0.0 0.0 0.00 0.00 0.00 45 1011.6
20260504002018 9 256 0.0 0.0 0.00 0.00 0.00 45 1011.6
20260504001519 9 256 0.0 0.0 0.00 0.00 0.00 45 1011.5
20260504001020 9 262 0.0 0.0 0.00 0.00 0.00 45 1011.5
20260504000517 10 262 0.0 0.0 0.00 0.00 0.00 45 1011.5
20260504000014 10 260 0.0 1.6 0.00 0.00 0.00 44 1011.4
20260503235514 10 262 0.0 1.6 0.00 0.00 0.00 44 1011.4
20260503235014 10 260 0.0 1.6 0.00 0.00 0.00 43 1011.3
20260503234533 10 255 0.0 3.2 0.00 0.00 0.00 42 1011.2
20260503234032 10 278 0.0 3.2 0.00 0.00 0.00 42 1011.3
20260503233530 10 273 0.0 4.8 0.00 0.00 0.00 41 1011.2
20260503233029 11 271 0.0 9.7 0.00 0.00 0.00 41 1011.2
20260503232548 11 217 3.2 8.0 0.00 0.00 0.00 40 1011.2
20260503232026 11 266 0.0 8.0 0.00 0.00 0.00 40 1011.2
20260503231524 11 273 1.6 8.0 0.00 0.00 0.00 40 1011.2
20260503231021 11 300 0.0 6.4 0.00 0.00 0.00 40 1011.2
20260503230516 11 307 1.6 9.7 0.00 0.00 0.00 40 1011.1
20260503230029 11 29 3.2 9.7 0.00 0.00 0.00 39 1011.1
20260503225526 11 222 1.6 9.7 0.00 0.00 0.00 39 1011.1
20260503225023 11 283 1.6 9.7 0.00 0.00 0.00 39 1011.2
20260503224540 11 238 4.8 9.7 0.00 0.00 0.00 38 1011.0
20260503224016 11 343 1.6 12.9 0.00 0.00 0.00 38 1011.1
20260503223513 11 269 4.8 9.7 0.00 0.00 0.00 38 1011.0
20260503223054 11 250 1.6 14.5 0.00 0.00 0.00 38 1011.0
20260503222550 11 248 4.8 14.5 0.00 0.00 0.00 38 1011.0
20260503222026 11 284 4.8 11.3 0.00 0.00 0.00 37 1011.0
20260503221524 11 302 3.2 9.7 0.00 0.00 0.00 37 1011.0
20260503221022 11 294 1.6 9.7 0.00 0.00 0.00 38 1011.0
20260503220521 11 295 3.2 9.7 0.00 0.00 0.00 37 1011.0
20260503220017 11 278 4.8 11.3 0.00 0.00 0.00 37 1011.1
20260503215536 11 273 3.2 12.9 0.00 0.00 0.00 37 1011.0
20260503215014 11 191 4.8 14.5 0.00 0.00 0.00 36 1011.0
20260503214512 11 51 3.2 14.5 0.00 0.00 0.00 36 1011.0
20260503214012 11 328 6.4 12.9 0.00 0.00 0.00 36 1010.9
20260503213513 11 271 3.2 9.7 0.00 0.00 0.00 35 1010.8
20260503213031 11 37 3.2 9.7 0.00 0.00 0.00 36 1010.8
20260503212530 11 330 3.2 9.7 0.00 0.00 0.00 34 1010.8
20260503212030 11 307 3.2 9.7 0.00 0.00 0.00 34 1010.8
20260503211529 11 41 3.2 14.5 0.00 0.00 0.00 34 1010.6
20260503211028 11 353 4.8 14.5 0.00 0.00 0.00 33 1010.5
20260503210527 11 222 8.0 16.1 0.00 0.00 0.00 33 1010.5
20260503210024 11 295 4.8 16.1 0.00 0.00 0.00 33 1010.5
20260503205523 11 280 6.4 14.5 0.00 0.00 0.00 33 1010.6
20260503205116 11 64 8.0 14.5 0.00 0.00 0.00 33 1010.5
20260503204541 11 249 3.2 9.7 0.00 0.00 0.00 33 1010.6
20260503204019 11 198 1.6 8.0 0.00 0.00 0.00 33 1010.5
20260503203518 11 259 3.2 9.7 0.00 0.00 0.00 33 1010.7
20260503203038 11 307 4.8 11.3 0.00 0.00 0.00 32 1010.6
20260503202552 11 295 3.2 19.3 0.00 0.00 0.00 34 1010.7
20260503202046 11 271 6.4 19.3 0.00 0.00 0.00 33 1010.7
20260503201524 11 328 3.2 11.3 0.00 0.00 0.00 34 1010.7
20260503201044 11 54 4.8 14.5 0.00 0.00 0.00 33 1010.8
20260503200520 11 332 4.8 19.3 0.00 0.00 0.00 32 1010.8
20260503200053 11 239 8.0 14.5 0.00 0.00 0.00 33 1010.8
20260503195528 11 212 4.8 16.1 0.00 0.00 0.00 34 1010.8
20260503195024 11 229 4.8 20.9 0.00 0.00 0.00 34 1011.0
20260503194542 11 263 6.4 14.5 0.00 0.00 0.00 34 1010.9
20260503194018 10 242 6.4 16.1 0.00 0.00 0.00 34 1011.0
20260503193518 10 297 6.4 17.7 0.00 0.00 0.00 34 1011.2
20260503193029 10 29 6.4 20.9 0.00 0.00 0.00 35 1011.2
20260503192528 10 115 6.4 20.9 0.00 0.00 0.00 34 1011.2
20260503192028 10 311 6.4 14.5 0.00 0.00 0.00 35 1011.5
20260503191526 10 27 3.2 16.1 0.00 0.00 0.00 35 1011.1
20260503191026 10 318 4.8 16.1 0.00 0.00 0.00 35 1011.4
20260503190524 10 249 4.8 14.5 0.00 0.00 0.00 36 1011.6
20260503190019 9 26 3.2 12.9 0.00 0.00 0.00 36 1011.4
20260503185519 9 52 4.8 12.9 0.00 0.00 0.00 36 1011.4
20260503185019 9 305 4.8 12.9 0.00 0.00 0.00 36 1011.7
20260503184518 9 12 4.8 16.1 0.00 0.00 0.00 37 1011.7
20260503184016 9 256 6.4 12.9 0.00 0.00 0.00 36 1011.7
20260503183517 9 43 4.8 11.3 0.00 0.00 0.00 38 1011.8
20260503183017 9 302 3.2 17.7 0.00 0.00 0.00 36 1011.8
20260503182515 9 33 8.0 20.9 0.00 0.00 0.00 37 1011.7
20260503182014 9 252 9.7 20.9 0.00 0.00 0.00 38 1011.6
20260503181513 8 269 8.0 20.9 0.00 0.00 0.00 37 1011.7
20260503181012 8 264 4.8 17.7 0.00 0.00 0.00 38 1011.9
20260503180530 8 233 6.4 24.1 0.00 0.00 0.00 37 1011.8
20260503180025 8 263 9.7 24.1 0.00 0.00 0.00 36 1011.8
20260503175542 8 252 8.0 12.9 0.00 0.00 0.00 37 1011.9
20260503175038 8 314 4.8 22.5 0.00 0.00 0.00 38 1011.9
20260503174514 8 321 4.8 22.5 0.00 0.00 0.00 38 1011.9
20260503174031 8 235 6.4 17.7 0.00 0.00 0.00 38 1012.0
20260503173530 8 5 8.0 17.7 0.00 0.00 0.00 38 1012.0
20260503173028 8 236 6.4 16.1 0.00 0.00 0.00 39 1012.0
20260503172525 8 309 4.8 14.5 0.00 0.00 0.00 40 1012.1
20260503172024 8 277 6.4 17.7 0.00 0.00 0.00 40 1012.0
20260503171521 7 245 8.0 17.7 0.00 0.00 0.00 40 1012.1
20260503171020 7 274 4.8 11.3 0.00 0.00 0.00 41 1012.1
20260503170518 7 40 6.4 12.9 0.00 0.00 0.00 41 1012.1
20260503150525 5 326 4.8 14.5 0.00 0.00 0.00 52 1012.6